Weather History for North Adams, MA

Change the Weather History Date:

Tuesday, September 18, 2012

  Actual Average Record
Temperature  
Mean Temperature 64 °F -  
Max Temperature 73 °F 69 °F 80 °F (2006)
Min Temperature 54 °F 47 °F 36 °F (2007)
Degree Days  
Heating Degree Days 2    
Growing Degree Days 14 (Base 50)    
Moisture  
Dew Point 61 °F    
Average Humidity 84    
Maximum Humidity 94    
Minimum Humidity 73    
Precipitation  
Precipitation 1.90 in - - ()
Sea Level Pressure  
Sea Level Pressure 29.75 in    
Wind  
Wind Speed 10 mph (ESE)    
Max Wind Speed 22 mph    
Max Gust Speed 36 mph    
Visibility 5 miles    
Events Rain    
Averages and records for this station are not official NWS values.
T = Trace of Precipitation, MM = Missing Value Source: NWS Daily Summary

Daily Weather History Graph

Daily Weather History Graph

Search for Another Location

Airport:

Trip Planner

Search our weather history database for the weather conditions in past years. The results will help you decide how hot, cold, wet, or windy it might be!

Date:

Astronomy

Sep. 18, 2012 Rise Set
Actual Time 6:36 AM EDT 6:56 PM EDT
Civil Twilight 6:07 AM EDT 7:24 PM EDT
Nautical Twilight 5:34 AM EDT 7:57 PM EDT
Astronomical Twilight 5:00 AM EDT 8:31 PM EDT
Moon 9:38 AM EDT (9/18) 8:11 PM EDT (9/18)
Length of Visible Light 13h 16m
Length of Day
12h 20m
Waxing Crescent, 9% of the Moon is Illuminated
Sep 18
Waxing Crescent
Sep 22
First Quarter
Sep 29
Full
Oct 8
Last Quarter
Oct 15
New

Hourly Weather History & Observations

Time (EDT) Temp. Dew Point Humidity Pressure Visibility Wind Dir Wind Speed Gust Speed Precip Events Conditions
12:52 AM 55.9 °F 51.1 °F 84% 30.02 in 10.0 mi ESE 5.8 mph - N/A   Clear
1:52 AM 55.0 °F 51.1 °F 86% 30.01 in 10.0 mi ESE 6.9 mph - N/A   Clear
2:52 AM 55.0 °F 50.0 °F 83% 30.00 in 10.0 mi ESE 5.8 mph - N/A   Clear
3:52 AM 54.0 °F 50.0 °F 86% 29.99 in 10.0 mi Calm Calm - N/A   Clear
4:52 AM 55.0 °F 50.0 °F 83% 29.96 in 10.0 mi East 5.8 mph - N/A   Mostly Cloudy
5:52 AM 55.9 °F 50.0 °F 80% 29.93 in 10.0 mi ESE 6.9 mph - N/A   Mostly Cloudy
6:34 AM 57.2 °F 51.8 °F 82% 29.93 in 10.0 mi East 12.7 mph 16.1 mph N/A   Overcast
6:52 AM 60.1 °F 52.0 °F 75% 29.93 in 10.0 mi East 12.7 mph 20.7 mph N/A   Overcast
8:52 AM 64.0 °F 59.0 °F 84% 29.91 in 5.0 mi SE 17.3 mph 29.9 mph 0.06 in Rain Light Rain
9:52 AM 64.0 °F 59.0 °F 84% 29.87 in 5.0 mi ESE 12.7 mph 25.3 mph 0.11 in Rain Light Rain
10:24 AM 62.6 °F 60.8 °F 94% 29.85 in 2.5 mi East 10.4 mph - 0.10 in Rain Rain
10:47 AM 64.4 °F 60.8 °F 88% 29.84 in 4.0 mi ESE 10.4 mph 26.5 mph 0.17 in Rain Light Rain
10:52 AM 64.0 °F 60.1 °F 87% 29.83 in 4.0 mi ESE 12.7 mph - 0.19 in Rain Rain
11:03 AM 64.4 °F 60.8 °F 88% 29.83 in 2.5 mi ESE 11.5 mph - 0.03 in Rain Rain
11:25 AM 64.4 °F 60.8 °F 88% 29.81 in 1.8 mi SE 10.4 mph - 0.13 in Rain Heavy Rain
11:40 AM 64.4 °F 60.8 °F 88% 29.81 in 1.2 mi ESE 13.8 mph - 0.26 in Rain Heavy Rain
11:52 AM 64.9 °F 62.1 °F 90% 29.80 in 1.8 mi SE 8.1 mph 17.3 mph 0.31 in Rain Light Rain
11:59 AM 64.4 °F 62.6 °F 94% 29.79 in 2.0 mi SE 12.7 mph 19.6 mph 0.03 in Rain Heavy Rain
12:37 PM 66.2 °F 62.6 °F 88% 29.78 in 1.5 mi ESE 10.4 mph 17.3 mph 0.14 in Rain Rain
12:43 PM 68.0 °F 62.6 °F 83% 29.78 in 3.0 mi East 11.5 mph 16.1 mph 0.14 in Rain Light Rain
12:48 PM 66.2 °F 62.6 °F 88% 29.78 in 2.5 mi East 6.9 mph 16.1 mph 0.17 in Rain Rain
12:52 PM 66.9 °F 63.0 °F 87% 29.78 in 1.2 mi East 8.1 mph 16.1 mph 0.19 in Rain Heavy Rain
1:15 PM 69.8 °F 62.6 °F 78% 29.77 in 5.0 mi ESE 11.5 mph 28.8 mph 0.08 in Rain Light Rain
1:52 PM 70.0 °F 63.0 °F 78% 29.74 in 9.0 mi ESE 21.9 mph 31.1 mph 0.09 in Rain Light Rain
2:45 PM 69.8 °F 62.6 °F 78% 29.71 in 8.0 mi ESE 13.8 mph 27.6 mph 0.03 in Rain Light Rain
2:52 PM 70.0 °F 64.0 °F 81% 29.70 in 9.0 mi East 11.5 mph 25.3 mph 0.04 in Rain Light Rain
3:20 PM 69.8 °F 64.4 °F 83% 29.68 in 4.0 mi ESE 18.4 mph 34.5 mph 0.03 in Rain Rain
3:40 PM 69.8 °F 64.4 °F 83% 29.67 in 2.0 mi ESE 21.9 mph 31.1 mph 0.09 in Rain Rain
3:52 PM 70.0 °F 64.9 °F 84% 29.67 in 2.0 mi ESE 17.3 mph 26.5 mph 0.13 in Rain Rain
4:11 PM 69.8 °F 64.4 °F 83% 29.67 in 1.8 mi East 12.7 mph 21.9 mph 0.09 in Rain Rain
4:18 PM 69.8 °F 64.4 °F 83% 29.68 in 2.5 mi East 12.7 mph 24.2 mph 0.12 in Rain Rain
4:52 PM 70.0 °F 64.0 °F 81% 29.66 in 6.0 mi East 9.2 mph 24.2 mph 0.22 in Rain Light Rain
4:59 PM 69.8 °F 64.4 °F 83% 29.67 in 10.0 mi ESE 15.0 mph 23.0 mph 0.00 in Rain Light Rain
5:52 PM 71.1 °F 64.0 °F 78% 29.63 in 9.0 mi ESE 13.8 mph 28.8 mph 0.02 in Rain Light Rain
6:52 PM 71.1 °F 64.9 °F 81% 29.60 in 8.0 mi ESE 17.3 mph 34.5 mph 0.05 in Rain Light Rain
7:18 PM 71.6 °F 64.4 °F 78% 29.60 in 9.0 mi SSE 16.1 mph 26.5 mph 0.02 in Rain Light Rain
7:26 PM 73.4 °F 64.4 °F 73% 29.60 in 7.0 mi ESE 13.8 mph 28.8 mph 0.03 in Rain Light Rain
7:52 PM 72.0 °F 66.0 °F 81% 29.60 in 3.0 mi SSE 16.1 mph 28.8 mph 0.14 in Rain Heavy Rain
7:56 PM 73.4 °F 64.4 °F 73% 29.63 in 3.0 mi SSW 19.6 mph 35.7 mph 0.01 in Rain Heavy Rain
8:06 PM 66.2 °F 64.4 °F 94% 29.62 in 1.8 mi Variable 4.6 mph 23.0 mph 0.10 in Rain Heavy Rain
8:13 PM 66.2 °F 62.6 °F 88% 29.62 in 3.0 mi Variable 3.5 mph - 0.11 in Rain Light Rain
8:20 PM 66.2 °F 62.6 °F 88% 29.62 in 10.0 mi NNE 4.6 mph - 0.11 in Rain Light Rain
8:52 PM 71.1 °F 64.0 °F 78% 29.62 in 6.0 mi SSE 11.5 mph 25.3 mph 0.17 in Rain Light Rain
9:52 PM 69.1 °F 62.1 °F 78% 29.63 in 10.0 mi SW 11.5 mph 23.0 mph 0.06 in   Overcast
10:25 PM 66.2 °F 64.4 °F 94% 29.65 in 2.5 mi Variable 3.5 mph - 0.04 in Rain Rain
10:30 PM 66.2 °F 62.6 °F 88% 29.65 in 1.8 mi Calm Calm - 0.06 in Rain Rain
10:36 PM 66.2 °F 62.6 °F 88% 29.66 in 2.0 mi Variable 3.5 mph - 0.09 in Rain Rain
10:47 PM 66.2 °F 62.6 °F 88% 29.65 in 4.0 mi Variable 3.5 mph - 0.10 in Rain Light Rain
10:52 PM 66.0 °F 63.0 °F 90% 29.65 in 5.0 mi Calm Calm - 0.11 in Rain Light Rain
11:52 PM 64.9 °F 63.0 °F 93% 29.66 in 10.0 mi Calm Calm - 0.01 in   Overcast